QPF
0.01 0.01 0.01 0.01 0.00 0.00 0.00 0.01 0.00 0.00 0.00 0.00 0.00 0.00 0.00 0.00 0.00 0.00 0.00 0.00 0.00 0.01 0.01 0.01 0.02 0.01 0.01 0.01 0.02 0.02 0.03 0.04 0.03 0.03 0.02 0.02 0.03 0.03 0.04 0.03 0.02 0.02 0.02
0.00 0.00 0.01 0.00 0.00 0.00 0.00 0.01 0.00 0.00 0.00 0.00 0.00 0.00 0.00 0.00 0.00 0.00 0.00 0.00 0.01 0.00 0.00 0.01 0.02 0.01 0.00 0.01 0.01 0.02 0.03 0.04 0.05 0.05 0.05 0.03 0.02 0.04 0.03 0.03 0.03 0.02 0.02
0.00 0.00 0.00 0.00 0.00 0.00 0.00 0.00 0.00 0.00 0.00 0.00 0.00 0.00 0.00 0.00 0.00 0.01 0.01 0.01 0.01 0.01 0.01 0.01 0.02 0.01 0.00 0.00 0.01 0.02 0.03 0.05 0.07 0.07 0.05 0.02 0.02 0.03 0.03 0.04 0.02 0.02 0.02
0.01 0.00 0.00 0.00 0.00 0.00 0.00 0.00 0.00 0.00 0.00 0.00 0.00 0.01 0.01 0.01 0.01 0.01 0.01 0.01 0.01 0.01 0.01 0.01 0.01 0.00 0.00 0.01 0.02 0.02 0.03 0.05 0.06 0.05 0.02 0.01 0.01 0.03 0.03 0.03 0.02 0.02 0.02
0.01 0.00 0.00 0.00 0.00 0.00 0.00 0.00 0.00 0.00 0.00 0.00 0.01 0.01 0.01 0.01 0.01 0.01 0.01 0.01 0.01 0.01 0.01 0.01 0.01 0.00 0.01 0.01 0.02 0.03 0.04 0.05 0.09 0.06 0.02 0.01 0.01 0.02 0.02 0.02 0.02 0.02 0.02
0.01 0.00 0.00 0.00 0.00 0.00 0.00 0.00 0.00 0.00 0.00 0.01 0.01 0.01 0.02 0.02 0.01 0.01 0.01 0.00 0.01 0.01 0.01 0.01 0.01 0.01 0.01 0.02 0.02 0.02 0.04 0.06 0.08 0.07 0.03 0.01 0.01 0.02 0.01 0.01 0.02 0.01 0.01
0.00 0.00 0.00 0.00 0.00 0.00 0.00 0.00 0.00 0.00 0.00 0.00 0.01 0.01 0.02 0.02 0.01 0.01 0.01 0.01 0.01 0.01 0.01 0.00 0.01 0.01 0.02 0.02 0.02 0.03 0.05 0.09 0.08 0.07 0.04 0.02 0.01 0.02 0.01 0.01 0.01 0.01 0.01
0.00 0.00 0.00 0.00 0.00 0.00 0.00 0.00 0.00 0.00 0.00 0.00 0.01 0.01 0.01 0.01 0.01 0.01 0.01 0.00 0.00 0.00 0.00 0.00 0.00 0.01 0.01 0.02 0.02 0.03 0.05 0.10 0.11 0.07 0.04 0.01 0.01 0.02 0.01 0.01 0.01 0.01 0.01
0.00 0.00 0.00 0.00 0.00 0.00 0.00 0.00 0.00 0.00 0.00 0.00 0.00 0.01 0.01 0.01 0.01 0.01 0.01 0.00 0.00 0.01 0.01 0.00 0.01 0.01 0.01 0.01 0.02 0.03 0.06 0.09 0.12 0.13 0.04 0.01 0.01 0.01 0.00 0.01 0.02 0.02 0.01
0.01 0.01 0.00 0.00 0.00 0.00 0.00 0.01 0.00 0.00 0.00 0.01 0.00 0.00 0.00 0.00 0.00 0.01 0.00 0.00 0.00 0.00 0.01 0.01 0.01 0.01 0.01 0.01 0.02 0.03 0.06 0.10 0.19 0.17 0.04 0.01 0.01 0.00 0.00 0.00 0.01 0.01 0.01
0.05 0.05 0.01 0.00 0.00 0.00 0.00 0.00 0.00 0.01 0.01 0.01 0.01 0.01 0.01 0.00 0.00 0.00 0.01 0.01 0.00 0.00 0.00 0.00 0.00 0.01 0.01 0.01 0.03 0.04 0.08 0.15 0.24 0.19 0.06 0.03 0.02 0.01 0.00 0.00 0.01 0.01 0.02
0.06 0.05 0.03 0.02 0.01 0.01 0.01 0.00 0.00 0.00 0.00 0.00 0.00 0.01 0.01 0.01 0.01 0.01 0.01 0.01 0.01 0.01 0.01 0.01 0.01 0.01 0.01 0.02 0.04 0.07 0.14 0.16 0.21 0.19 0.06 0.04 0.03 0.02 0.01 0.01 0.01 0.01 0.01
0.15 0.10 0.09 0.14 0.12 0.06 0.03 0.02 0.01 0.01 0.00 0.01 0.01 0.01 0.01 0.01 0.02 0.02 0.01 0.01 0.01 0.01 0.00 0.01 0.02 0.02 0.02 0.05 0.08 0.10 0.12 0.17 0.15 0.14 0.06 0.06 0.04 0.02 0.01 0.01 0.01 0.01 0.01
0.30 0.22 0.17 0.23 0.17 0.15 0.08 0.07 0.05 0.03 0.01 0.01 0.02 0.02 0.02 0.03 0.03 0.02 0.01 0.01 0.01 0.01 0.01 0.02 0.03 0.04 0.05 0.08 0.10 0.10 0.11 0.10 0.10 0.11 0.06 0.06 0.05 0.04 0.02 0.02 0.02 0.02 0.01
0.32 0.31 0.23 0.21 0.18 0.18 0.13 0.11 0.09 0.05 0.03 0.03 0.04 0.03 0.02 0.02 0.03 0.02 0.02 0.01 0.01 0.01 0.01 0.02 0.02 0.03 0.05 0.11 0.10 0.07 0.08 0.10 0.09 0.04 0.04 0.04 0.05 0.05 0.04 0.02 0.02 0.02 0.01
0.28 0.29 0.25 0.20 0.16 0.13 0.13 0.14 0.16 0.09 0.07 0.05 0.04 0.03 0.02 0.02 0.02 0.02 0.02 0.01 0.01 0.01 0.02 0.01 0.01 0.02 0.03 0.05 0.07 0.05 0.06 0.07 0.06 0.05 0.04 0.03 0.04 0.04 0.04 0.04 0.04 0.03 0.02
0.27 0.34 0.32 0.26 0.22 0.20 0.18 0.18 0.18 0.13 0.11 0.08 0.05 0.04 0.03 0.03 0.02 0.01 0.01 0.01 0.01 0.02 0.02 0.02 0.02 0.02 0.02 0.03 0.04 0.04 0.04 0.04 0.04 0.03 0.02 0.01 0.02 0.03 0.04 0.04 0.04 0.03 0.03
0.21 0.29 0.35 0.38 0.41 0.29 0.22 0.21 0.20 0.17 0.14 0.13 0.09 0.06 0.04 0.02 0.02 0.01 0.01 0.01 0.01 0.02 0.02 0.01 0.02 0.03 0.02 0.02 0.03 0.03 0.03 0.03 0.03 0.02 0.02 0.01 0.01 0.01 0.02 0.03 0.03 0.03 0.04
0.26 0.34 0.35 0.37 0.44 0.32 0.24 0.23 0.25 0.24 0.24 0.20 0.12 0.05 0.04 0.03 0.02 0.02 0.03 0.01 0.01 0.01 0.02 0.01 0.01 0.01 0.01 0.01 0.01 0.01 0.01 0.02 0.03 0.03 0.04 0.03 0.02 0.02 0.02 0.03 0.04 0.04 0.05
0.24 0.29 0.31 0.30 0.30 0.28 0.21 0.18 0.19 0.20 0.22 0.23 0.15 0.07 0.04 0.03 0.02 0.02 0.02 0.01 0.02 0.02 0.02 0.02 0.01 0.01 0.01 0.01 0.01 0.01 0.01 0.02 0.03 0.04 0.04 0.04 0.03 0.02 0.01 0.01 0.02 0.02 0.04
0.13 0.18 0.22 0.22 0.21 0.25 0.20 0.13 0.12 0.13 0.12 0.17 0.15 0.09 0.05 0.03 0.02 0.02 0.01 0.01 0.02 0.02 0.02 0.03 0.02 0.01 0.01 0.00 0.01 0.03 0.03 0.03 0.02 0.02 0.02 0.02 0.02 0.02 0.02 0.01 0.00 0.00 0.01
0.09 0.14 0.17 0.16 0.15 0.15 0.14 0.10 0.10 0.10 0.09 0.11 0.15 0.10 0.06 0.04 0.03 0.02 0.02 0.01 0.01 0.01 0.01 0.01 0.01 0.02 0.01 0.00 0.00 0.02 0.02 0.02 0.02 0.02 0.02 0.02 0.01 0.01 0.01 0.01 0.01 0.00 0.00
0.08 0.09 0.11 0.14 0.13 0.10 0.11 0.11 0.10 0.13 0.13 0.12 0.12 0.08 0.05 0.04 0.04 0.03 0.02 0.02 0.01 0.01 0.01 0.00 0.01 0.01 0.01 0.00 0.00 0.01 0.01 0.01 0.01 0.01 0.01 0.01 0.01 0.01 0.01 0.01 0.01 0.00 0.01
0.08 0.09 0.12 0.15 0.15 0.10 0.09 0.08 0.05 0.06 0.05 0.06 0.07 0.06 0.05 0.04 0.03 0.03 0.03 0.02 0.01 0.01 0.01 0.01 0.00 0.00 0.01 0.01 0.00 0.00 0.00 0.00 0.01 0.01 0.01 0.01 0.01 0.00 0.00 0.00 0.00 0.01 0.00
0.14 0.14 0.16 0.16 0.17 0.11 0.09 0.08 0.05 0.05 0.05 0.05 0.06 0.07 0.06 0.05 0.03 0.03 0.02 0.02 0.02 0.01 0.01 0.01 0.01 0.00 0.00 0.00 0.00 0.00 0.00 0.01 0.01 0.00 0.01 0.01 0.01 0.00 0.00 0.00 0.00 0.00 0.00
0.13 0.13 0.15 0.16 0.12 0.10 0.11 0.11 0.07 0.06 0.05 0.04 0.06 0.06 0.06 0.05 0.04 0.03 0.03 0.02 0.02 0.01 0.01 0.01 0.01 0.00 0.00 0.00 0.01 0.00 0.00 0.00 0.00 0.00 0.00 0.00 0.01 0.00 0.00 0.00 0.00 0.00 0.00
MSLP
1011.30 1011.01 1010.94 1011.11 1011.48 1011.94 1012.41 1012.80 1013.03 1013.13 1013.11 1013.05 1013.03 1013.08 1013.23 1013.46 1013.75 1014.03 1014.27 1014.44 1014.54 1014.60 1014.63 1014.67 1014.72 1014.80 1014.88 1014.95 1014.99 1015.01 1015.02 1015.03 1015.08 1015.17 1015.33 1015.54 1015.79 1016.05 1016.31 1016.54 1016.73 1016.88 1017.00
1010.90 1010.74 1010.79 1011.05 1011.49 1012.00 1012.48 1012.86 1013.10 1013.20 1013.21 1013.19 1013.21 1013.31 1013.51 1013.78 1014.07 1014.35 1014.56 1014.70 1014.78 1014.82 1014.85 1014.89 1014.96 1015.05 1015.14 1015.22 1015.27 1015.29 1015.29 1015.30 1015.35 1015.46 1015.63 1015.85 1016.11 1016.37 1016.62 1016.83 1017.01 1017.15 1017.26
1010.46 1010.41 1010.56 1010.92 1011.42 1011.98 1012.49 1012.90 1013.16 1013.29 1013.33 1013.36 1013.44 1013.59 1013.81 1014.09 1014.37 1014.61 1014.79 1014.89 1014.94 1014.96 1014.99 1015.04 1015.13 1015.24 1015.35 1015.45 1015.51 1015.54 1015.56 1015.59 1015.66 1015.78 1015.97 1016.20 1016.45 1016.71 1016.93 1017.12 1017.27 1017.39 1017.50
1010.03 1010.09 1010.33 1010.77 1011.33 1011.92 1012.47 1012.90 1013.19 1013.36 1013.46 1013.55 1013.67 1013.86 1014.10 1014.37 1014.62 1014.82 1014.95 1015.01 1015.03 1015.04 1015.07 1015.14 1015.26 1015.40 1015.54 1015.66 1015.74 1015.79 1015.84 1015.89 1015.98 1016.13 1016.33 1016.57 1016.81 1017.04 1017.24 1017.39 1017.52 1017.62 1017.73
1009.69 1009.83 1010.15 1010.64 1011.24 1011.85 1012.42 1012.86 1013.18 1013.39 1013.54 1013.68 1013.85 1014.07 1014.33 1014.58 1014.81 1014.97 1015.05 1015.08 1015.08 1015.09 1015.15 1015.25 1015.40 1015.57 1015.74 1015.88 1015.99 1016.06 1016.12 1016.19 1016.31 1016.48 1016.69 1016.92 1017.15 1017.36 1017.52 1017.64 1017.74 1017.84 1017.95
1009.48 1009.68 1010.05 1010.57 1011.18 1011.80 1012.35 1012.79 1013.12 1013.35 1013.54 1013.72 1013.94 1014.20 1014.47 1014.72 1014.93 1015.07 1015.13 1015.15 1015.15 1015.18 1015.26 1015.40 1015.59 1015.79 1015.99 1016.14 1016.26 1016.34 1016.41 1016.49 1016.62 1016.80 1017.02 1017.25 1017.47 1017.64 1017.78 1017.87 1017.95 1018.04 1018.16
1009.41 1009.65 1010.06 1010.59 1011.18 1011.76 1012.28 1012.69 1012.99 1013.23 1013.44 1013.67 1013.93 1014.22 1014.52 1014.80 1015.01 1015.15 1015.21 1015.24 1015.26 1015.32 1015.44 1015.62 1015.84 1016.07 1016.27 1016.43 1016.54 1016.62 1016.68 1016.77 1016.90 1017.09 1017.31 1017.53 1017.74 1017.90 1018.02 1018.09 1018.16 1018.24 1018.37
1009.43 1009.73 1010.15 1010.68 1011.24 1011.77 1012.22 1012.57 1012.84 1013.05 1013.27 1013.53 1013.83 1014.17 1014.52 1014.83 1015.08 1015.24 1015.33 1015.38 1015.43 1015.53 1015.68 1015.89 1016.13 1016.37 1016.58 1016.73 1016.83 1016.88 1016.93 1017.01 1017.14 1017.32 1017.54 1017.77 1017.98 1018.14 1018.25 1018.32 1018.38 1018.46 1018.60
1009.51 1009.85 1010.31 1010.84 1011.36 1011.83 1012.21 1012.48 1012.69 1012.87 1013.09 1013.36 1013.71 1014.10 1014.51 1014.87 1015.16 1015.36 1015.49 1015.57 1015.65 1015.77 1015.95 1016.17 1016.43 1016.67 1016.86 1017.00 1017.07 1017.11 1017.14 1017.20 1017.32 1017.50 1017.73 1017.97 1018.19 1018.37 1018.49 1018.57 1018.63 1018.72 1018.86
1009.57 1009.98 1010.49 1011.04 1011.54 1011.95 1012.26 1012.46 1012.60 1012.75 1012.95 1013.24 1013.62 1014.07 1014.53 1014.95 1015.28 1015.52 1015.68 1015.79 1015.88 1016.02 1016.19 1016.42 1016.67 1016.90 1017.08 1017.20 1017.26 1017.28 1017.29 1017.35 1017.47 1017.65 1017.89 1018.15 1018.39 1018.59 1018.74 1018.84 1018.92 1019.01 1019.14
1009.56 1010.08 1010.66 1011.24 1011.75 1012.13 1012.38 1012.52 1012.61 1012.71 1012.90 1013.20 1013.61 1014.10 1014.61 1015.07 1015.45 1015.72 1015.89 1016.00 1016.10 1016.22 1016.38 1016.59 1016.82 1017.04 1017.21 1017.32 1017.38 1017.40 1017.42 1017.47 1017.59 1017.78 1018.03 1018.31 1018.58 1018.81 1018.99 1019.12 1019.22 1019.32 1019.44
1009.46 1010.09 1010.78 1011.43 1011.97 1012.35 1012.57 1012.67 1012.72 1012.79 1012.96 1013.27 1013.69 1014.21 1014.74 1015.23 1015.63 1015.92 1016.09 1016.19 1016.26 1016.35 1016.48 1016.66 1016.87 1017.08 1017.26 1017.38 1017.46 1017.49 1017.53 1017.59 1017.72 1017.92 1018.17 1018.46 1018.75 1019.02 1019.23 1019.39 1019.52 1019.63 1019.74
1009.27 1010.03 1010.82 1011.56 1012.15 1012.56 1012.78 1012.87 1012.90 1012.95 1013.11 1013.40 1013.83 1014.35 1014.90 1015.40 1015.80 1016.09 1016.24 1016.32 1016.36 1016.42 1016.52 1016.67 1016.86 1017.07 1017.27 1017.42 1017.53 1017.60 1017.66 1017.75 1017.88 1018.08 1018.33 1018.62 1018.92 1019.20 1019.44 1019.63 1019.78 1019.90 1020.01
1009.02 1009.89 1010.79 1011.61 1012.27 1012.72 1012.96 1013.06 1013.09 1013.14 1013.28 1013.57 1013.98 1014.49 1015.03 1015.52 1015.92 1016.19 1016.34 1016.40 1016.41 1016.44 1016.51 1016.65 1016.84 1017.06 1017.28 1017.48 1017.63 1017.75 1017.86 1017.96 1018.10 1018.28 1018.50 1018.77 1019.05 1019.33 1019.58 1019.79 1019.97 1020.11 1020.23
1008.77 1009.72 1010.69 1011.58 1012.29 1012.79 1013.07 1013.20 1013.24 1013.29 1013.43 1013.70 1014.09 1014.57 1015.08 1015.56 1015.95 1016.22 1016.36 1016.42 1016.43 1016.45 1016.52 1016.65 1016.85 1017.09 1017.35 1017.60 1017.81 1017.98 1018.12 1018.24 1018.37 1018.52 1018.70 1018.92 1019.16 1019.42 1019.66 1019.88 1020.07 1020.23 1020.37
1008.57 1009.55 1010.55 1011.46 1012.21 1012.75 1013.07 1013.24 1013.31 1013.38 1013.51 1013.75 1014.10 1014.55 1015.03 1015.49 1015.87 1016.15 1016.32 1016.40 1016.44 1016.48 1016.57 1016.72 1016.94 1017.21 1017.52 1017.81 1018.07 1018.29 1018.45 1018.58 1018.69 1018.79 1018.92 1019.07 1019.25 1019.45 1019.67 1019.89 1020.09 1020.27 1020.43
1008.48 1009.42 1010.39 1011.29 1012.04 1012.60 1012.97 1013.18 1013.29 1013.38 1013.51 1013.73 1014.05 1014.44 1014.89 1015.33 1015.71 1016.02 1016.23 1016.37 1016.46 1016.56 1016.68 1016.87 1017.12 1017.43 1017.76 1018.10 1018.40 1018.65 1018.83 1018.96 1019.04 1019.09 1019.15 1019.22 1019.32 1019.46 1019.64 1019.83 1020.04 1020.24 1020.42
1008.52 1009.38 1010.26 1011.10 1011.83 1012.40 1012.80 1013.06 1013.22 1013.34 1013.48 1013.67 1013.95 1014.30 1014.70 1015.12 1015.51 1015.85 1016.12 1016.33 1016.51 1016.68 1016.86 1017.09 1017.38 1017.70 1018.06 1018.42 1018.75 1019.02 1019.21 1019.34 1019.39 1019.40 1019.39 1019.38 1019.40 1019.47 1019.59 1019.75 1019.94 1020.15 1020.36
1008.70 1009.43 1010.19 1010.93 1011.61 1012.17 1012.61 1012.93 1013.15 1013.32 1013.47 1013.65 1013.88 1014.18 1014.53 1014.92 1015.31 1015.68 1016.02 1016.32 1016.58 1016.83 1017.08 1017.35 1017.66 1018.00 1018.36 1018.72 1019.06 1019.34 1019.55 1019.68 1019.72 1019.70 1019.63 1019.56 1019.51 1019.50 1019.55 1019.67 1019.83 1020.03 1020.24
1008.99 1009.56 1010.17 1010.81 1011.43 1011.99 1012.47 1012.86 1013.15 1013.37 1013.55 1013.72 1013.91 1014.15 1014.44 1014.79 1015.17 1015.56 1015.95 1016.32 1016.66 1016.98 1017.29 1017.59 1017.91 1018.25 1018.60 1018.96 1019.30 1019.59 1019.82 1019.96 1020.01 1019.97 1019.88 1019.76 1019.64 1019.57 1019.55 1019.61 1019.73 1019.90 1020.10
1009.33 1009.74 1010.21 1010.74 1011.30 1011.87 1012.40 1012.86 1013.24 1013.54 1013.75 1013.92 1014.08 1014.25 1014.48 1014.76 1015.11 1015.50 1015.92 1016.34 1016.74 1017.12 1017.46 1017.78 1018.10 1018.42 1018.75 1019.09 1019.43 1019.73 1019.98 1020.15 1020.23 1020.21 1020.12 1019.97 1019.82 1019.68 1019.59 1019.58 1019.64 1019.76 1019.93
1009.65 1009.92 1010.27 1010.71 1011.23 1011.80 1012.39 1012.94 1013.42 1013.79 1014.06 1014.24 1014.36 1014.48 1014.63 1014.85 1015.14 1015.51 1015.93 1016.37 1016.80 1017.21 1017.57 1017.89 1018.20 1018.49 1018.80 1019.12 1019.45 1019.77 1020.05 1020.26 1020.39 1020.41 1020.33 1020.19 1020.00 1019.82 1019.67 1019.57 1019.56 1019.62 1019.73
1009.89 1010.06 1010.31 1010.68 1011.17 1011.76 1012.41 1013.05 1013.62 1014.08 1014.41 1014.61 1014.71 1014.78 1014.86 1015.01 1015.24 1015.56 1015.96 1016.39 1016.83 1017.24 1017.61 1017.93 1018.21 1018.48 1018.75 1019.06 1019.38 1019.71 1020.03 1020.29 1020.48 1020.55 1020.52 1020.39 1020.19 1019.97 1019.75 1019.59 1019.49 1019.46 1019.51
1010.02 1010.13 1010.31 1010.62 1011.09 1011.69 1012.39 1013.11 1013.77 1014.31 1014.70 1014.93 1015.04 1015.08 1015.11 1015.19 1015.36 1015.63 1015.99 1016.40 1016.83 1017.24 1017.60 1017.91 1018.17 1018.41 1018.66 1018.95 1019.27 1019.61 1019.96 1020.27 1020.51 1020.64 1020.65 1020.54 1020.35 1020.10 1019.83 1019.60 1019.41 1019.31 1019.28
1010.05 1010.12 1010.24 1010.51 1010.95 1011.56 1012.28 1013.05 1013.79 1014.40 1014.86 1015.13 1015.26 1015.29 1015.29 1015.33 1015.46 1015.68 1016.01 1016.40 1016.82 1017.22 1017.57 1017.86 1018.11 1018.33 1018.57 1018.83 1019.14 1019.49 1019.86 1020.20 1020.48 1020.66 1020.71 1020.64 1020.45 1020.19 1019.89 1019.59 1019.34 1019.16 1019.06
1010.02 1010.05 1010.14 1010.36 1010.76 1011.34 1012.07 1012.86 1013.64 1014.31 1014.83 1015.15 1015.32 1015.37 1015.38 1015.41 1015.51 1015.72 1016.02 1016.40 1016.80 1017.19 1017.54 1017.83 1018.07 1018.28 1018.50 1018.75 1019.05 1019.39 1019.76 1020.11 1020.42 1020.62 1020.71 1020.66 1020.49 1020.23 1019.92 1019.59 1019.28 1019.04 1018.87
Thickness
5787 5787 5785 5784 5783 5782 5780 5779 5778 5777 5776 5775 5773 5772 5771 5770 5768 5767 5765 5763 5762 5760 5759 5757 5756 5755 5754 5753 5751 5750 5749 5748 5747 5746 5745 5743 5742 5741 5739 5738 5736 5735 5734
5793 5788 5785 5783 5782 5781 5779 5778 5777 5775 5774 5773 5772 5771 5770 5768 5767 5765 5764 5762 5760 5758 5757 5755 5754 5753 5751 5750 5749 5748 5747 5746 5745 5744 5743 5741 5740 5738 5737 5736 5735 5733 5732
5793 5788 5785 5782 5781 5779 5778 5776 5775 5774 5773 5772 5771 5770 5768 5767 5765 5764 5762 5760 5758 5757 5755 5753 5752 5750 5749 5748 5746 5745 5744 5743 5742 5741 5740 5739 5738 5737 5736 5734 5733 5732 5731
5793 5788 5784 5781 5780 5778 5776 5775 5774 5772 5771 5770 5769 5768 5767 5765 5764 5762 5761 5759 5757 5755 5753 5751 5750 5748 5747 5745 5744 5743 5742 5740 5739 5738 5738 5737 5736 5734 5734 5733 5732 5731 5730
5791 5787 5783 5780 5778 5776 5774 5773 5772 5770 5769 5768 5767 5766 5765 5764 5762 5760 5759 5757 5755 5753 5751 5749 5748 5746 5745 5743 5742 5741 5739 5739 5738 5736 5735 5735 5734 5732 5732 5731 5730 5729 5729
5789 5786 5783 5780 5777 5775 5773 5771 5770 5769 5767 5766 5765 5765 5763 5762 5760 5759 5757 5755 5753 5751 5749 5747 5746 5744 5742 5741 5740 5739 5738 5737 5735 5734 5733 5732 5732 5731 5730 5729 5728 5728 5727
5787 5784 5781 5779 5776 5773 5771 5770 5768 5767 5766 5765 5764 5763 5762 5760 5758 5757 5755 5753 5751 5749 5747 5746 5744 5742 5741 5739 5738 5737 5737 5735 5733 5731 5730 5730 5729 5729 5728 5727 5727 5726 5725
5788 5783 5780 5777 5774 5772 5770 5768 5766 5764 5763 5762 5761 5760 5759 5758 5756 5754 5753 5751 5749 5747 5745 5744 5742 5740 5739 5738 5737 5736 5735 5734 5731 5730 5728 5728 5727 5727 5726 5725 5724 5724 5723
5787 5782 5778 5775 5772 5769 5767 5765 5764 5762 5761 5760 5759 5758 5757 5756 5754 5753 5751 5749 5747 5745 5743 5742 5740 5739 5738 5736 5735 5734 5734 5732 5730 5728 5727 5726 5725 5724 5724 5723 5722 5722 5721
5783 5779 5776 5772 5769 5766 5764 5762 5761 5760 5759 5758 5757 5756 5755 5753 5752 5750 5749 5747 5745 5743 5742 5740 5739 5737 5736 5735 5734 5733 5732 5730 5729 5727 5726 5724 5723 5722 5721 5720 5720 5719 5719
5777 5775 5772 5769 5766 5763 5761 5759 5758 5757 5756 5755 5754 5754 5752 5751 5750 5748 5747 5745 5744 5742 5740 5739 5737 5736 5735 5734 5733 5732 5730 5729 5728 5726 5725 5723 5722 5721 5719 5718 5717 5717 5717
5772 5770 5769 5766 5763 5760 5759 5756 5754 5754 5753 5753 5752 5751 5750 5749 5747 5746 5745 5743 5742 5741 5739 5738 5736 5735 5734 5733 5732 5730 5729 5727 5726 5725 5724 5722 5721 5719 5718 5716 5715 5715 5715
5773 5769 5766 5763 5760 5757 5756 5752 5751 5751 5751 5750 5750 5749 5748 5747 5745 5744 5743 5742 5741 5739 5738 5737 5736 5735 5734 5733 5731 5729 5728 5726 5725 5724 5722 5721 5719 5718 5716 5715 5714 5713 5713
5772 5768 5764 5761 5758 5755 5753 5751 5749 5749 5748 5748 5748 5747 5746 5745 5744 5743 5742 5741 5739 5738 5737 5736 5735 5734 5733 5732 5731 5729 5727 5726 5724 5722 5721 5719 5718 5716 5715 5714 5713 5712 5711
5772 5767 5763 5759 5756 5753 5751 5748 5746 5746 5747 5747 5747 5746 5744 5744 5743 5742 5740 5740 5739 5737 5736 5735 5734 5733 5733 5732 5731 5729 5727 5725 5722 5720 5719 5718 5716 5715 5714 5713 5712 5710 5709
5770 5765 5762 5758 5755 5752 5748 5746 5745 5745 5746 5746 5746 5746 5744 5743 5742 5741 5739 5739 5738 5737 5736 5735 5734 5733 5732 5732 5730 5729 5726 5724 5721 5720 5718 5717 5715 5714 5713 5712 5710 5709 5708
5769 5764 5760 5756 5752 5749 5746 5744 5743 5743 5744 5745 5745 5745 5744 5743 5742 5741 5739 5738 5738 5737 5736 5735 5734 5733 5732 5730 5728 5727 5725 5723 5721 5720 5718 5717 5715 5713 5712 5711 5709 5708 5707
5769 5762 5757 5754 5749 5747 5745 5742 5742 5742 5742 5743 5744 5744 5743 5742 5742 5740 5739 5738 5738 5737 5736 5734 5732 5731 5729 5728 5726 5725 5724 5723 5721 5720 5718 5716 5715 5713 5712 5710 5709 5708 5707
5768 5761 5755 5752 5748 5746 5744 5742 5741 5741 5741 5742 5743 5743 5742 5741 5741 5740 5739 5738 5738 5736 5735 5734 5731 5730 5727 5726 5726 5725 5724 5723 5721 5720 5718 5717 5715 5713 5712 5710 5709 5708 5707
5767 5761 5755 5751 5748 5744 5742 5740 5738 5738 5739 5740 5741 5742 5741 5740 5740 5740 5739 5738 5738 5736 5734 5733 5730 5729 5728 5726 5726 5724 5723 5723 5722 5721 5719 5717 5715 5714 5712 5711 5710 5709 5708
5764 5758 5754 5749 5746 5744 5741 5738 5735 5734 5736 5737 5739 5740 5740 5740 5740 5739 5739 5737 5737 5735 5733 5732 5730 5728 5726 5726 5722 5718 5719 5721 5721 5720 5719 5718 5717 5715 5714 5712 5710 5709 5708
5763 5758 5754 5750 5747 5745 5744 5741 5738 5737 5736 5736 5738 5738 5739 5739 5739 5739 5738 5737 5736 5734 5732 5731 5729 5726 5725 5725 5720 5712 5708 5711 5716 5720 5719 5718 5718 5717 5715 5713 5712 5710 5709
5763 5759 5756 5751 5748 5746 5744 5740 5737 5734 5733 5732 5734 5736 5738 5738 5738 5738 5737 5736 5735 5734 5732 5731 5730 5727 5723 5724 5724 5716 5707 5703 5709 5715 5717 5718 5718 5717 5716 5715 5713 5712 5711
5765 5760 5756 5752 5748 5746 5743 5740 5736 5733 5730 5732 5734 5735 5737 5737 5738 5737 5736 5735 5735 5734 5732 5731 5730 5728 5725 5721 5722 5722 5720 5717 5709 5707 5713 5717 5718 5717 5717 5717 5716 5714 5712
5765 5760 5755 5751 5747 5745 5743 5742 5738 5734 5733 5733 5734 5734 5734 5735 5736 5736 5735 5735 5734 5733 5732 5731 5730 5728 5727 5724 5722 5721 5720 5718 5716 5709 5706 5711 5715 5717 5718 5718 5717 5716 5714
5763 5759 5755 5750 5747 5746 5743 5741 5738 5735 5733 5732 5731 5731 5732 5732 5733 5734 5734 5733 5733 5732 5731 5730 5729 5728 5727 5725 5723 5722 5720 5717 5715 5712 5708 5708 5709 5715 5718 5718 5717 5717 5716